This demonstration page uses our WeatherBlox Daily Observations layout. Learn more.

Left ArrowRight Arrow

40.92945, -100.16068

Hourly Observations for May 21, 2020

Temp ( °F °C ) Dew Point ( °F °C ) Humidity (%) Winds ( mph kmh ) Pressure ( in mb ) Visibility ( mi km ) Precip ( " mm )
12:15 am 00:15 Clear 60 15.8 55 12.6 81 81 SE 15 24 29.81 1009 10 16.0934 0 0
12:35 am 00:35 Partly Cloudy 60 15.5 55 12.6 83 83 SE 17 28 29.82 1010 10 16.0934 0 0
12:55 am 00:55 Mostly Cloudy 59 15.1 55 12.6 85 85 SE 17 28 29.84 1010 10 16.0934 0 0
1:15 am 01:15 Cloudy 59 15 55 12.5 85 85 SE 17 28 29.84 1010 10 16.0934 0 0
1:35 am 01:35 Cloudy 59 14.9 55 12.6 86 86 SE 16 26 29.84 1010 10 16.0934 0 0
1:55 am 01:55 Cloudy 59 14.9 55 12.6 86 86 SE 15 24 29.83 1010 10 16.0934 0 0
2:15 am 02:15 Cloudy 59 14.8 55 12.6 87 87 SE 16 26 29.84 1010 10 16.0934 0 0
2:35 am 02:35 Cloudy 59 14.8 55 12.5 86 86 SE 15 24 29.86 1011 10 16.0934 0 0
2:55 am 02:55 Cloudy 59 14.8 55 12.6 87 87 SSE 13 20 29.88 1012 10 16.0934 0 0
3:15 am 03:15 Cloudy 59 15 55 12.7 86 86 SSE 13 20 29.88 1012 10 16.0934 0 0
3:35 am 03:35 Cloudy 59 15 55 12.7 86 86 SSE 10 17 29.9 1012 10 16.0934 0 0
3:55 am 03:55 Cloudy 59 15 55 12.8 87 87 SE 8 13 29.91 1013 10 16.0934 0 0
4:15 am 04:15 Cloudy 59 15 55 12.8 87 87 SE 10 17 29.89 1012 10 16.0934 0 0
4:35 am 04:35 Cloudy 58 14.6 55 13 90 90 ESE 10 17 29.89 1012 5 8.0467 0 0
4:55 am 04:55 Cloudy with Light Rain 57 14.1 56 13.4 96 96 ESE 9 15 29.88 1012 3 4.82802 0 0
5:15 am 05:15 Cloudy with Light Rain 57 14 56 13.3 96 96 ESE 10 17 29.87 1012 5 8.0467 0.01 0.254
5:35 am 05:35 Cloudy 57 14 56 13.2 95 95 ESE 14 22 29.85 1011 10 16.0934 0.01 0.254
5:55 am 05:55 Cloudy 57 14 56 13.2 95 95 SE 14 22 29.86 1011 10 16.0934 0.01 0.254
6:15 am 06:15 Cloudy 57 14 56 13.1 94 94 SE 16 26 29.84 1011 10 16.0934 0 0
6:35 am 06:35 Cloudy 57 14 56 13.1 94 94 SE 15 24 29.83 1010 10 16.0934 0 0
6:55 am 06:55 Cloudy with Rain 57 14 56 13.1 94 94 SE 15 24 29.82 1010 4 6.43736 0.02 0.508
7:15 am 07:15 Cloudy with Light Rain 57 14 56 13.3 96 96 SE 14 22 29.83 1010 3 4.82802 0.01 0.254
7:35 am 07:35 Cloudy with Drizzle 57 14 56 13.4 96 96 SE 12 19 29.82 1010 3 4.82802 0.02 0.508
7:55 am 07:55 Cloudy with Drizzle 57 14 56 13.5 97 97 SSE 10 17 29.85 1011 3 4.82802 0.04 1.016
8:15 am 08:15 Cloudy 57 14 56 13.5 97 97 SE 13 20 29.86 1011 2.5 4.02335 0.02 0.508
8:35 am 08:35 Cloudy with Nearby Thunderstorms 57 14 56 13.6 97 97 SSE 8 13 29.86 1011 2.5 4.02335 0.06 1.524
8:55 am 08:55 Cloudy with Drizzle 57 14.1 56 13.6 97 97 SSE 6 9 29.86 1011 4 6.43736 0.08 2.032
9:15 am 09:15 Cloudy with Rain 57 14.1 56 13.6 97 97 SE 6 9 29.85 1011 5 8.0467 0.01 0.254
9:35 am 09:35 Cloudy with Heavy Rain 58 14.2 57 13.7 97 97 SE 7 11 29.86 1011 4 6.43736 0.04 1.016
9:55 am 09:55 Cloudy with Rain 58 14.5 57 14 97 97 ESE 7 11 29.86 1011 3 4.82802 0.07 1.778
10:15 am 10:15 Cloudy with Drizzle 58 14.5 57 13.9 96 96 ESE 8 13 29.86 1011 2.5 4.02335 0 0
10:35 am 10:35 Cloudy with Drizzle 58 14.5 57 14 97 97 ESE 8 13 29.86 1011 2 3.21868 0.01 0.254
10:55 am 10:55 Cloudy with Drizzle 58 14.5 57 14.1 97 97 ESE 9 15 29.86 1011 1.75 2.816345 0.02 0.508
11:15 am 11:15 Cloudy with Mist and Fog 58 14.6 57 14.1 97 97 ESE 8 13 29.86 1011 1.75 2.816345 0 0
11:35 am 11:35 Cloudy with Mist and Fog 58 14.7 57 14.1 96 96 SE 9 15 29.86 1011 1.75 2.816345 0 0
11:55 am 11:55 Cloudy with Mist and Fog 59 15 58 14.4 96 96 SE 8 13 29.86 1011 2 3.21868 0 0
12:15 pm 12:15 Cloudy with Mist and Fog 59 15.2 58 14.5 96 96 SSE 10 17 29.85 1011 3 4.82802 0 0
12:35 pm 12:35 Cloudy with Mist and Fog 60 15.3 58 14.5 95 95 SE 13 20 29.85 1011 4 6.43736 0 0
12:55 pm 12:55 Cloudy with Mist and Fog 59 15 58 14.3 96 96 SE 9 15 29.86 1011 4 6.43736 0 0
1:15 pm 13:15 Cloudy with Mist and Fog 59 15 58 14.2 95 95 SE 10 17 29.86 1011 2.5 4.02335 0 0
1:35 pm 13:35 Cloudy with Mist and Fog 59 15.2 58 14.6 96 96 SSE 12 19 29.84 1011 3 4.82802 0.01 0.254
1:55 pm 13:55 Cloudy with Mist and Fog 60 15.5 58 14.7 95 95 SE 12 19 29.84 1011 2.5 4.02335 0.01 0.254
2:15 pm 14:15 Cloudy with Mist and Fog 60 15.7 59 14.9 95 95 SE 16 26 29.83 1010 4 6.43736 0 0
2:35 pm 14:35 Cloudy with Mist and Fog 61 15.9 59 15 94 94 SSE 10 17 29.84 1010 5 8.0467 0 0
2:55 pm 14:55 Cloudy 61 16.1 59 15 93 93 SSE 12 19 29.83 1010 10 16.0934 0 0
3:55 pm 15:55 Cloudy 63 17 60 15.5 91 91 SE 14 22 29.82 1010 10 16.0934 0 0
4:15 pm 16:15 Cloudy 63 17 60 15.4 90 90 SE 16 26 29.81 1009 10 16.0934 0 0
4:35 pm 16:35 Cloudy 63 17.1 60 15.7 92 92 SE 13 20 29.81 1009 10 16.0934 0 0
4:55 pm 16:55 Cloudy 63 17.2 60 15.5 90 90 SE 14 22 29.81 1009 10 16.0934 0 0
5:15 pm 17:15 Cloudy 64 17.5 60 15.6 89 89 SE 14 22 29.79 1009 10 16.0934 0 0
5:35 pm 17:35 Cloudy 63 17.3 60 15.5 89 89 SE 15 24 29.81 1009 10 16.0934 0 0
5:55 pm 17:55 Cloudy 62 16.8 59 15.2 90 90 SE 12 19 29.82 1010 10 16.0934 0 0
6:15 pm 18:15 Cloudy 63 17 60 15.4 90 90 SE 13 20 29.81 1009 10 16.0934 0 0
6:35 pm 18:35 Cloudy 62 16.5 59 15.2 92 92 SE 14 22 29.81 1010 10 16.0934 0 0
6:55 pm 18:55 Cloudy 62 16.5 59 15.2 92 92 ESE 10 17 29.82 1010 10 16.0934 0 0
7:15 pm 19:15 Cloudy 61 16.3 60 15.3 94 94 ESE 10 17 29.81 1010 10 16.0934 0 0
7:35 pm 19:35 Cloudy 61 16.2 60 15.3 94 94 ESE 7 11 29.83 1010 10 16.0934 0 0
7:55 pm 19:55 Cloudy 61 16.2 60 15.4 95 95 ESE 8 13 29.84 1010 10 16.0934 0 0
8:15 pm 20:15 Cloudy 61 16.3 60 15.5 95 95 ESE 9 15 29.82 1010 10 16.0934 0 0
8:35 pm 20:35 Cloudy with Light Rain 61 16.3 60 15.6 96 96 ESE 12 19 29.83 1010 10 16.0934 0 0
8:55 pm 20:55 Cloudy with Light Rain 61 16.1 60 15.6 97 97 ESE 12 19 29.84 1010 7 11.26538 0.02 0.508
9:15 pm 21:15 Cloudy 61 16.1 60 15.6 97 97 SE 10 17 29.84 1010 7 11.26538 0 0
9:35 pm 21:35 Cloudy with Mist and Fog 61 16 60 15.5 97 97 SE 8 13 29.85 1011 4 6.43736 0 0
9:55 pm 21:55 Cloudy with Mist and Fog 61 16.1 60 15.7 97 97 ESE 9 15 29.85 1011 4 6.43736 0 0
10:15 pm 22:15 Cloudy with Mist and Fog 61 16.1 60 15.7 97 97 ESE 9 15 29.85 1011 4 6.43736 0 0
10:35 pm 22:35 Cloudy with Mist and Fog 61 16.2 60 15.8 97 97 ESE 8 13 29.85 1011 4 6.43736 0 0
10:55 pm 22:55 Cloudy with Mist and Fog 61 16.2 60 15.8 97 97 ESE 7 11 29.85 1011 4 6.43736 0 0
11:15 pm 23:15 Cloudy with Mist and Fog 61 16.3 60 15.8 97 97 ESE 9 15 29.85 1011 5 8.0467 0 0
11:35 pm 23:35 Cloudy with Mist and Fog 61 16.3 60 15.7 96 96 ESE 7 11 29.84 1011 5 8.0467 0 0
11:55 pm 23:55 Cloudy with Mist and Fog 61 16.2 60 15.7 97 97 E 6 9 29.86 1011 5 8.0467 0 0

Powered by AerisWeather